Orbital Elements at Epoch 2459200.5 (2020-Dec-17.0) TDB
Reference: JPL 21 (heliocentric ecliptic J2000)
Element | Value | Uncertainty (1-sigma) | Units |
e | .1894486533543503 | 3.2446e-08 | |
a | 2.367164581906922 | 1.0952e-08 | au |
q | 1.918708439596542 | 7.831e-08 | au |
i | 10.15679822284443 | 3.8017e-06 | deg |
node | 114.1340546894976 | 2.857e-05 | deg |
peri | 154.3125893601813 | 3.1694e-05 | deg |
M | 53.41218823177511 | 1.5588e-05 | deg |
tp | 2459003.130982950295 (2020-Jun-02.63098295) | 5.7033e-05 | TDB |
period | 1330.274015915046 3.64 | 9.2324e-06 2.528e-08 | d yr |
n | .2706209365086105 | 1.8782e-09 | deg/d |
Q | 2.815620724217302 | 1.3027e-08 | au |
|
| | Orbit Determination Parameters
Additional Information
|